| time (UTC) | temp F | wind direction | speed MPH | gust MPH | rain 1hr in | rain 24hr in | rain mn in | humidity % | barometer mb |
| 20260504231515 | 48 | 103 | 8.0 | 13.0 | 0.00 | 0.00 | 0.00 | 66 | 1012.7 |
| 20260504231008 | 47 | 137 | 3.0 | 8.0 | 0.00 | 0.00 | 0.00 | 68 | 1012.7 |
| 20260504230507 | 45 | 121 | 2.0 | 6.0 | 0.00 | 0.00 | 0.00 | 75 | 1013.0 |
| 20260504230016 | 45 | 211 | 3.0 | 15.0 | 0.00 | 0.00 | 0.00 | 74 | 1013.2 |
| 20260504225505 | 45 | 208 | 7.0 | 18.0 | 0.00 | 0.00 | 0.00 | 73 | 1013.3 |
| 20260504225006 | 47 | 243 | 13.0 | 20.0 | 0.00 | 0.00 | 0.00 | 65 | 1013.4 |
| 20260504224516 | 48 | 259 | 16.0 | 20.0 | 0.00 | 0.00 | 0.00 | 61 | 1013.4 |
| 20260504224003 | 49 | 251 | 6.0 | 10.0 | 0.00 | 0.00 | 0.00 | 58 | 1013.2 |
| 20260504223507 | 50 | 252 | 7.0 | 11.0 | 0.00 | 0.00 | 0.00 | 55 | 1013.2 |
| 20260504223015 | 50 | 243 | 8.0 | 11.0 | 0.00 | 0.00 | 0.00 | 53 | 1013.2 |
| 20260504222505 | 51 | 245 | 6.0 | 9.0 | 0.00 | 0.00 | 0.00 | 51 | 1013.2 |
| 20260504222006 | 52 | 136 | 4.0 | 8.0 | 0.00 | 0.00 | 0.00 | 54 | 1013.1 |
| 20260504221522 | 50 | 234 | 4.0 | 13.0 | 0.00 | 0.00 | 0.00 | 60 | 1013.2 |
| 20260504221006 | 48 | 233 | 7.0 | 15.0 | 0.00 | 0.00 | 0.00 | 62 | 1013.4 |
| 20260504220506 | 47 | 231 | 10.0 | 15.0 | 0.00 | 0.00 | 0.00 | 64 | 1013.5 |
| 20260504220023 | 46 | 212 | 11.0 | 19.0 | 0.00 | 0.00 | 0.00 | 64 | 1013.4 |
| 20260504215504 | 46 | 223 | 12.0 | 20.0 | 0.00 | 0.00 | 0.00 | 65 | 1013.4 |
| 20260504215007 | 46 | 214 | 11.0 | 25.0 | 0.00 | 0.00 | 0.00 | 69 | 1013.4 |
| 20260504214519 | 45 | 224 | 17.0 | 25.0 | 0.00 | 0.00 | 0.00 | 67 | 1013.4 |
| 20260504214008 | 46 | 260 | 18.0 | 23.0 | 0.00 | 0.00 | 0.00 | 66 | 1013.3 |
| 20260504213507 | 46 | 259 | 16.0 | 23.0 | 0.00 | 0.00 | 0.00 | 63 | 1013.5 |
| 20260504213018 | 47 | 224 | 14.0 | 22.0 | 0.00 | 0.00 | 0.00 | 63 | 1013.8 |
| 20260504212504 | 48 | 264 | 16.0 | 24.0 | 0.00 | 0.00 | 0.00 | 60 | 1013.8 |
| 20260504212003 | 48 | 233 | 17.0 | 24.0 | 0.00 | 0.00 | 0.00 | 57 | 1013.7 |
| 20260504211519 | 48 | 248 | 19.0 | 28.0 | 0.00 | 0.00 | 0.00 | 55 | 1013.5 |
| 20260504211003 | 49 | 245 | 17.0 | 30.0 | 0.00 | 0.00 | 0.00 | 54 | 1013.5 |
| 20260504210506 | 50 | 277 | 22.0 | 30.0 | 0.00 | 0.00 | 0.00 | 52 | 1013.2 |
| 20260504210011 | 52 | 268 | 16.0 | 32.0 | 0.00 | 0.00 | 0.00 | 48 | 1013.1 |
| 20260504205505 | 55 | 272 | 18.0 | 32.0 | 0.00 | 0.00 | 0.00 | 42 | 1013.0 |
| 20260504205005 | 57 | 301 | 13.0 | 18.0 | 0.00 | 0.00 | 0.00 | 32 | 1012.5 |
| 20260504204516 | 58 | 290 | 9.0 | 11.0 | 0.00 | 0.00 | 0.00 | 30 | 1012.3 |
| 20260504204007 | 58 | 256 | 5.0 | 11.0 | 0.00 | 0.00 | 0.00 | 28 | 1012.3 |
| 20260504203507 | 59 | 280 | 3.0 | 10.0 | 0.00 | 0.00 | 0.00 | 28 | 1012.2 |
| 20260504203021 | 60 | 94 | 4.0 | 21.0 | 0.00 | 0.00 | 0.00 | 30 | 1012.3 |
| 20260504202508 | 60 | 291 | 8.0 | 21.0 | 0.00 | 0.00 | 0.00 | 28 | 1012.3 |
| 20260504202007 | 61 | 297 | 11.0 | 21.0 | 0.00 | 0.00 | 0.00 | 30 | 1012.2 |
| 20260504201506 | 60 | 98 | 1.0 | 11.0 | 0.00 | 0.00 | 0.00 | 31 | 1012.5 |
| 20260504201002 | 60 | 284 | 4.0 | 10.0 | 0.00 | 0.00 | 0.00 | 31 | 1012.6 |
| 20260504200502 | 59 | 288 | 4.0 | 10.0 | 0.00 | 0.00 | 0.00 | 31 | 1012.8 |
| 20260504200016 | 58 | 29 | 3.0 | 18.0 | 0.00 | 0.00 | 0.00 | 33 | 1012.7 |
| 20260504195504 | 58 | 290 | 6.0 | 18.0 | 0.00 | 0.00 | 0.00 | 31 | 1012.8 |
| 20260504195003 | 57 | 292 | 8.0 | 13.0 | 0.00 | 0.00 | 0.00 | 31 | 1012.9 |
| 20260504194512 | 58 | 240 | 4.0 | 8.0 | 0.00 | 0.00 | 0.00 | 35 | 1012.9 |
| 20260504194005 | 57 | 228 | 3.0 | 13.0 | 0.00 | 0.00 | 0.00 | 39 | 1013.0 |
| 20260504193504 | 56 | 264 | 8.0 | 13.0 | 0.00 | 0.00 | 0.00 | 35 | 1013.0 |
| 20260504193017 | 57 | 283 | 3.0 | 12.0 | 0.00 | 0.00 | 0.00 | 34 | 1013.0 |
| 20260504192506 | 58 | 197 | 5.0 | 11.0 | 0.00 | 0.00 | 0.00 | 35 | 1013.0 |
| 20260504192007 | 58 | 292 | 6.0 | 17.0 | 0.00 | 0.00 | 0.00 | 35 | 1013.2 |
| 20260504191536 | 58 | 226 | 6.0 | 17.0 | 0.00 | 0.00 | 0.00 | 36 | 1013.2 |
| 20260504191007 | 57 | 269 | 8.0 | 16.0 | 0.00 | 0.00 | 0.00 | 34 | 1013.3 |
| 20260504190507 | 56 | 269 | 10.0 | 15.0 | 0.00 | 0.00 | 0.00 | 35 | 1013.4 |
| 20260504190004 | 55 | 266 | 7.0 | 10.0 | 0.00 | 0.00 | 0.00 | 40 | 1013.4 |
| 20260504185506 | 54 | 299 | 4.0 | 14.0 | 0.00 | 0.00 | 0.00 | 40 | 1013.6 |
| 20260504185002 | 54 | 274 | 9.0 | 14.0 | 0.00 | 0.00 | 0.00 | 38 | 1013.8 |
| 20260504184513 | 54 | 292 | 9.0 | 16.0 | 0.00 | 0.00 | 0.00 | 39 | 1013.8 |
| 20260504184003 | 54 | 285 | 4.0 | 19.0 | 0.00 | 0.00 | 0.00 | 42 | 1013.8 |
| 20260504183503 | 55 | 292 | 8.0 | 19.0 | 0.00 | 0.00 | 0.00 | 42 | 1014.0 |
| 20260504183033 | 56 | 322 | 11.0 | 19.0 | 0.00 | 0.00 | 0.00 | 41 | 1014.0 |
| 20260504182509 | 55 | 283 | 11.0 | 16.0 | 0.00 | 0.00 | 0.00 | 41 | 1014.1 |
| 20260504182007 | 54 | 275 | 8.0 | 16.0 | 0.00 | 0.00 | 0.00 | 43 | 1014.3 |
| 20260504181524 | 55 | 290 | 4.0 | 12.0 | 0.00 | 0.00 | 0.00 | 45 | 1014.4 |
| 20260504181007 | 54 | 276 | 5.0 | 12.0 | 0.00 | 0.00 | 0.00 | 45 | 1014.6 |
| 20260504180511 | 54 | 290 | 9.0 | 15.0 | 0.00 | 0.00 | 0.00 | 43 | 1014.9 |
| 20260504180026 | 55 | 304 | 8.0 | 18.0 | 0.00 | 0.00 | 0.00 | 40 | 1014.9 |
| 20260504175507 | 56 | 297 | 12.0 | 18.0 | 0.00 | 0.00 | 0.00 | 41 | 1014.9 |
| 20260504175007 | 55 | 241 | 11.0 | 16.0 | 0.00 | 0.00 | 0.00 | 42 | 1014.9 |
| 20260504174526 | 54 | 304 | 8.0 | 17.0 | 0.00 | 0.00 | 0.00 | 48 | 1014.9 |
| 20260504174003 | 54 | 301 | 10.0 | 17.0 | 0.00 | 0.00 | 0.00 | 44 | 1014.9 |
| 20260504173503 | 55 | 300 | 6.0 | 17.0 | 0.00 | 0.00 | 0.00 | 43 | 1015.1 |
| 20260504173010 | 54 | 289 | 12.0 | 17.0 | 0.00 | 0.00 | 0.00 | 42 | 1015.1 |
| 20260504172504 | 55 | 297 | 7.0 | 15.0 | 0.00 | 0.00 | 0.00 | 45 | 1015.2 |
| 20260504172007 | 54 | 280 | 9.0 | 15.0 | 0.00 | 0.00 | 0.00 | 47 | 1015.1 |
| 20260504171516 | 53 | 287 | 6.0 | 14.0 | 0.00 | 0.00 | 0.00 | 46 | 1015.3 |
| 20260504171010 | 53 | 274 | 6.0 | 18.0 | 0.00 | 0.00 | 0.00 | 47 | 1015.4 |
| 20260504170515 | 52 | 274 | 10.0 | 18.0 | 0.00 | 0.00 | 0.00 | 48 | 1015.4 |
| 20260504151003 | 40 | 317 | 0.0 | 0.0 | 0.00 | 0.00 | 0.00 | 59 | 1016.2 |
| 20260504150511 | 40 | 86 | 0.0 | 0.0 | 0.00 | 0.00 | 0.00 | 61 | 1016.3 |
| 20260504141006 | 34 | 280 | 0.0 | 0.0 | 0.00 | 0.00 | 0.00 | 68 | 1016.6 |
| 20260504140504 | 33 | 281 | 0.0 | 0.0 | 0.00 | 0.00 | 0.00 | 70 | 1016.7 |
| 20260504130504 | 26 | 129 | 0.0 | 0.0 | 0.00 | 0.00 | 0.00 | 84 | 1016.5 |
| 20260504110506 | 24 | 191 | 0.0 | 0.0 | 0.00 | 0.00 | 0.00 | 84 | 1016.0 |
| 20260504100503 | 25 | 188 | 0.0 | 0.0 | 0.00 | 0.00 | 0.00 | 83 | 1015.9 |
| 20260504081527 | 29 | 165 | 0.0 | 0.0 | 0.00 | 0.00 | 0.00 | 75 | 1016.2 |
| 20260504081012 | 29 | 165 | 0.0 | 0.0 | 0.00 | 0.00 | 0.00 | 73 | 1016.3 |
| 20260504080510 | 29 | 165 | 0.0 | 0.0 | 0.00 | 0.00 | 0.00 | 73 | 1016.3 |
| 20260504050508 | 38 | 236 | 0.0 | 3.0 | 0.00 | 0.00 | 0.00 | 55 | 1016.7 |
| 20260504045506 | 38 | 155 | 0.0 | 3.0 | 0.00 | 0.00 | 0.00 | 59 | 1016.8 |
| 20260504045008 | 38 | 155 | 0.0 | 0.0 | 0.00 | 0.00 | 0.00 | 59 | 1016.8 |
| 20260504044535 | 38 | 150 | 0.0 | 0.0 | 0.00 | 0.00 | 0.00 | 56 | 1016.9 |
| 20260504044009 | 38 | 281 | 0.0 | 0.0 | 0.00 | 0.00 | 0.00 | 55 | 1016.9 |
| 20260504043510 | 39 | 268 | 0.0 | 0.0 | 0.00 | 0.00 | 0.00 | 54 | 1017.0 |
| 20260504043027 | 39 | 150 | 0.0 | 0.0 | 0.00 | 0.00 | 0.00 | 55 | 1016.9 |
| 20260504042509 | 40 | 151 | 0.0 | 0.0 | 0.00 | 0.00 | 0.00 | 52 | 1017.0 |
| 20260504042009 | 41 | 150 | 0.0 | 0.0 | 0.00 | 0.00 | 0.00 | 51 | 1016.8 |
| 20260504041528 | 42 | 154 | 0.0 | 2.0 | 0.00 | 0.00 | 0.00 | 50 | 1016.9 |
| 20260504041005 | 42 | 150 | 0.0 | 3.0 | 0.00 | 0.00 | 0.00 | 49 | 1016.9 |
| 20260504040507 | 43 | 174 | 2.0 | 4.0 | 0.00 | 0.00 | 0.00 | 50 | 1016.8 |
| 20260504040022 | 44 | 195 | 3.0 | 4.0 | 0.00 | 0.00 | 0.00 | 48 | 1016.9 |
| 20260504035507 | 45 | 166 | 0.0 | 2.0 | 0.00 | 0.00 | 0.00 | 43 | 1016.9 |
| 20260504035006 | 46 | 165 | 1.0 | 3.0 | 0.00 | 0.00 | 0.00 | 43 | 1016.9 |
| 20260504034537 | 47 | 191 | 1.0 | 3.0 | 0.00 | 0.00 | 0.00 | 42 | 1016.9 |
| 20260504034003 | 47 | 184 | 0.0 | 0.0 | 0.00 | 0.00 | 0.00 | 43 | 1016.8 |
| 20260504033503 | 47 | 150 | 0.0 | 0.0 | 0.00 | 0.00 | 0.00 | 43 | 1016.8 |
| 20260504033007 | 47 | 150 | 0.0 | 0.0 | 0.00 | 0.00 | 0.00 | 42 | 1016.8 |
| 20260504032503 | 47 | 153 | 0.0 | 0.0 | 0.00 | 0.00 | 0.00 | 42 | 1016.8 |
| 20260504032004 | 47 | 123 | 0.0 | 0.0 | 0.00 | 0.00 | 0.00 | 42 | 1016.8 |
| 20260504031516 | 47 | 227 | 0.0 | 0.0 | 0.00 | 0.00 | 0.00 | 43 | 1016.8 |
| 20260504031006 | 47 | 152 | 0.0 | 2.0 | 0.00 | 0.00 | 0.00 | 43 | 1016.8 |
| 20260504030504 | 47 | 149 | 0.0 | 4.0 | 0.00 | 0.00 | 0.00 | 43 | 1016.8 |
| 20260504030036 | 48 | 172 | 1.0 | 4.0 | 0.00 | 0.00 | 0.00 | 44 | 1016.8 |
| 20260504025507 | 48 | 203 | 2.0 | 3.0 | 0.00 | 0.00 | 0.00 | 43 | 1016.7 |
| 20260504025007 | 48 | 198 | 2.0 | 6.0 | 0.00 | 0.00 | 0.00 | 43 | 1016.7 |
| 20260504024524 | 49 | 191 | 0.0 | 7.0 | 0.00 | 0.00 | 0.00 | 41 | 1016.7 |
| 20260504024012 | 50 | 211 | 4.0 | 9.0 | 0.00 | 0.00 | 0.00 | 39 | 1016.8 |
| 20260504023507 | 50 | 233 | 6.0 | 9.0 | 0.00 | 0.00 | 0.00 | 38 | 1016.8 |
| 20260504023027 | 50 | 250 | 2.0 | 5.0 | 0.00 | 0.00 | 0.00 | 37 | 1016.7 |
| 20260504022509 | 50 | 250 | 0.0 | 4.0 | 0.00 | 0.00 | 0.00 | 37 | 1016.8 |
| 20260504022003 | 50 | 244 | 0.0 | 2.0 | 0.00 | 0.00 | 0.00 | 37 | 1016.7 |
| 20260504021509 | 50 | 130 | 0.0 | 0.0 | 0.00 | 0.00 | 0.00 | 39 | 1016.7 |
| 20260504021002 | 50 | 226 | 0.0 | 3.0 | 0.00 | 0.00 | 0.00 | 39 | 1016.7 |
| 20260504020505 | 50 | 226 | 0.0 | 4.0 | 0.00 | 0.00 | 0.00 | 39 | 1016.6 |
| 20260504020015 | 50 | 151 | 2.0 | 4.0 | 0.00 | 0.00 | 0.00 | 38 | 1016.7 |
| 20260504015506 | 50 | 203 | 1.0 | 5.0 | 0.00 | 0.00 | 0.00 | 39 | 1016.6 |
| 20260504015003 | 51 | 199 | 1.0 | 8.0 | 0.00 | 0.00 | 0.00 | 39 | 1016.6 |
| 20260504014532 | 51 | 207 | 5.0 | 9.0 | 0.00 | 0.00 | 0.00 | 39 | 1016.6 |
| 20260504014008 | 51 | 193 | 5.0 | 9.0 | 0.00 | 0.00 | 0.00 | 39 | 1016.7 |
| 20260504013506 | 51 | 229 | 3.0 | 5.0 | 0.00 | 0.00 | 0.00 | 38 | 1016.6 |
| 20260504013022 | 51 | 214 | 0.0 | 2.0 | 0.00 | 0.00 | 0.00 | 39 | 1016.6 |
| 20260504012507 | 51 | 207 | 1.0 | 3.0 | 0.00 | 0.00 | 0.00 | 38 | 1016.6 |
| 20260504012010 | 52 | 136 | 1.0 | 3.0 | 0.00 | 0.00 | 0.00 | 36 | 1016.5 |
| 20260504011524 | 52 | 134 | 1.0 | 3.0 | 0.00 | 0.00 | 0.00 | 36 | 1016.6 |
| 20260504011010 | 53 | 131 | 0.0 | 0.0 | 0.00 | 0.00 | 0.00 | 35 | 1016.6 |
| 20260504010506 | 53 | 209 | 0.0 | 0.0 | 0.00 | 0.00 | 0.00 | 33 | 1016.6 |
| 20260504010009 | 53 | 215 | 0.0 | 0.0 | 0.00 | 0.00 | 0.00 | 34 | 1016.6 |
| 20260504005505 | 53 | 115 | 0.0 | 0.0 | 0.00 | 0.00 | 0.00 | 34 | 1016.7 |
| 20260504005004 | 53 | 87 | 0.0 | 0.0 | 0.00 | 0.00 | 0.00 | 35 | 1016.8 |
| 20260504004512 | 53 | 87 | 0.0 | 0.0 | 0.00 | 0.00 | 0.00 | 35 | 1016.8 |
| 20260504004007 | 53 | 103 | 0.0 | 2.0 | 0.00 | 0.00 | 0.00 | 36 | 1016.8 |
| 20260504003505 | 53 | 69 | 0.0 | 4.0 | 0.00 | 0.00 | 0.00 | 35 | 1016.8 |
| 20260504003028 | 53 | 51 | 2.0 | 7.0 | 0.00 | 0.00 | 0.00 | 34 | 1016.9 |
| 20260504002506 | 53 | 99 | 3.0 | 7.0 | 0.00 | 0.00 | 0.00 | 35 | 1017.0 |
| 20260504002007 | 53 | 88 | 3.0 | 7.0 | 0.00 | 0.00 | 0.00 | 35 | 1017.1 |
| 20260504001523 | 53 | 103 | 3.0 | 6.0 | 0.00 | 0.00 | 0.00 | 35 | 1017.1 |
| 20260504001006 | 53 | 63 | 3.0 | 7.0 | 0.00 | 0.00 | 0.00 | 35 | 1017.2 |
| 20260504000507 | 53 | 51 | 4.0 | 8.0 | 0.00 | 0.00 | 0.00 | 35 | 1017.3 |
| 20260504000025 | 53 | 22 | 3.0 | 10.0 | 0.00 | 0.00 | 0.00 | 37 | 1017.4 |
| 20260503235507 | 52 | 9 | 6.0 | 20.0 | 0.00 | 0.00 | 0.00 | 36 | 1017.4 |
| 20260503235010 | 52 | 44 | 5.0 | 20.0 | 0.00 | 0.00 | 0.00 | 37 | 1017.8 |
| 20260503234527 | 52 | 290 | 2.0 | 10.0 | 0.00 | 0.00 | 0.00 | 38 | 1018.2 |
| 20260503234004 | 52 | 80 | 0.0 | 13.0 | 0.00 | 0.00 | 0.00 | 39 | 1018.0 |
| 20260503233505 | 53 | 354 | 7.0 | 15.0 | 0.00 | 0.00 | 0.00 | 40 | 1018.1 |
| 20260503233016 | 54 | 319 | 10.0 | 15.0 | 0.00 | 0.00 | 0.00 | 34 | 1018.0 |
| 20260503232507 | 55 | 352 | 6.0 | 9.0 | 0.00 | 0.00 | 0.00 | 33 | 1017.8 |
| 20260503232007 | 55 | 352 | 5.0 | 9.0 | 0.00 | 0.00 | 0.00 | 32 | 1017.6 |